Simultaneous Nadir Overpasses (SNOs) Predictions

Prediction of SNOs near equator between AQUA and NPP Satellite Orbit:

Table of predicted SNOs near equator for the next 14.0 days since TLE Epoch: 10/16/2021
Index Date (AQUA) Time (AQUA) AQUA Lat,Lon Date (NPP) Time (NPP) NPP Lat,Lon Distance(km) Time Diff (sec)
1 10/18/2021 07:52:05 -3.46, -94.62 10/18/2021 07:42:51 -3.40, -94.87 28.69 554
2 10/18/2021 08:40:19 -1.17, 73.99 10/18/2021 08:32:21 -1.25, 73.47 58.73 478
3 10/18/2021 09:28:27 5.67,-117.39 10/18/2021 09:21:44 5.83,-118.17 88.07 403
4 10/20/2021 23:19:55 6.15,-146.96 10/20/2021 23:09:56 6.14,-147.06 10.60 599
5 10/21/2021 00:08:03 -1.65, 21.66 10/20/2021 23:59:19 -1.56, 21.30 40.52 524
6 10/21/2021 00:56:17 -2.98,-169.74 10/21/2021 00:48:49 -3.09,-170.36 70.34 448
7 10/21/2021 01:44:25 7.48, -1.12 10/21/2021 01:38:12 7.67, -2.00 99.38 373
8 10/23/2021 15:35:53 4.36, -30.69 10/23/2021 15:26:24 4.30, -30.88 22.48 569
9 10/23/2021 16:24:00 0.20, 137.94 10/23/2021 16:15:47 0.27, 137.47 52.43 493
10 10/23/2021 17:12:15 -4.77, -53.47 10/23/2021 17:05:17 -4.93, -54.19 81.96 418
11 10/26/2021 07:09:55 -29.97, -88.32 10/26/2021 06:59:55 -30.14, -88.69 40.77 600
12 10/26/2021 07:51:49 2.46, 85.60 10/26/2021 07:42:51 2.41, 85.30 34.31 538
13 10/26/2021 08:39:57 2.04,-105.78 10/26/2021 08:32:14 2.17,-106.34 64.16 463
14 10/26/2021 09:28:11 -6.66, 62.83 10/26/2021 09:21:44 -6.82, 62.00 93.46 387
15 10/28/2021 23:19:30 -5.20, 33.29 10/28/2021 23:09:47 -5.18, 33.14 16.28 583
16 10/29/2021 00:07:45 0.64,-158.12 10/28/2021 23:59:17 0.53,-158.52 46.31 508
17 10/29/2021 00:55:52 3.93, 10.51 10/29/2021 00:48:40 4.05, 9.84 75.95 432
